星链-33573 (STARLINK-33573)

导读

STARLINK-33573是美国SpaceX公司星链互联网卫星星座中的一员,于2025年1月21日由猎鹰9号火箭从佛罗里达州肯尼迪航天中心发射升空。它运行在低地球轨道,为全球偏远、基础设施匮乏地区提供高速低延迟宽带互联网服务,助力星链持续扩容覆盖网络,推动全球互联接入能力提升。

Basic Information
目录编号:
62778
目录名称:
STARLINK-33573
国际标识:
2025-015W
轨道中心:
EARTH
卫星名称:
星链-33573
卫星全名:
星链-33573 (STARLINK-33573)
卫星状态:
在轨 (已飞行509 天)
发射日期:
2025-01-21 UTC
国别 :
美国 (US)
星等 :
--
Orbit Information
数据来源 国际轨道数据 AOE轨道数据
星历时间 2026-06-14T06:10:15+0800
11小时前
查看轨道信息
2026-06-12T04:00:00+0800
2天前
查看轨道信息
半长轴 6840.736km 6840.84km
偏心率 0.0002246 0.0001569
轨道倾角 53.160° 53.159°
近地点辐角 79.469° 66.620°
升交点赤经 234.843° 244.617°
平近点角 280.657° 259.694°
近地点 461.062km 461.629km
远地点 464.136km 463.777km
周期 93.846分钟 93.848分钟
每日圈数 15.344354 15.344003
Detailed Information
固有亮度:
5
最大亮度:
2.5
卫星平台:
Starlink V1.0
覆盖范围:
全球
运营商:
太空探索技术公司
运营商所在国:
美国
制造商(研发单位):
太空探索技术公司
制造商所在国:
美国
使用方式:
暂无
Satellite Introduction
Starlink 计划是 SpaceX 推出的全球卫星互联网项目,通过发射低轨道卫星,为全球尤其是偏远地区提供高速、低延迟的互联网服务。自 2019 年起,Starlink 已部署数千颗卫星,旨在缩小全球数字鸿沟,推动互联网普及。该项目还为军事、航空等行业提供通信支持,带来广泛经济效益。
2D Orbit Map
3D Orbit Map
Orbit Altitude Analysis Chart
Orbit Inclination Analysis Chart
Orbit Comprehensive Analysis Chart
View Comprehensive Chart